This demonstration page uses our WeatherBlox Daily Observations layout. Learn more.

Left ArrowRight Arrow

41.86663, -103.66717

Hourly Observations for January 6, 2017

Temp ( °F °C ) Dew Point ( °F °C ) Humidity (%) Winds ( mph kmh ) Pressure ( in mb ) Visibility ( mi km ) Precip ( " mm )
12:53 am 00:53 Clear -12 -24.4 -19 -28.3 70 70 NW 10 17 30.29 1026 10 16 0.00 0.00
1:53 am 01:53 Clear -16 -26.7 -22 -30 74 74 WNW 8 13 30.32 1027 10 16 0.00 0.00
2:53 am 02:53 Clear -16 -26.7 -22 -30 74 74 NW 13 20 30.32 1027 10 16 0.00 0.00
3:53 am 03:53 Clear -14 -25.6 -21 -29.4 71 71 WNW 10 17 30.32 1027 10 16 0.00 0.00
4:53 am 04:53 Clear -16 -26.7 -23 -30.6 70 70 WNW 9 15 30.35 1028 10 16 0.00 0.00
5:53 am 05:53 Clear -22 -30 -28 -33.3 73 73 W 7 11 30.40 1029 10 16 0.00 0.00
6:53 am 06:53 Clear -20 -28.9 -26 -32.2 73 73 WNW 9 15 30.41 1030 10 16 0.00 0.00
7:53 am 07:53 Sunny -19 -28.3 -25 -31.7 73 73 NW 12 19 30.42 1030 10 16 0.00 0.00
8:53 am 08:53 Sunny -12 -24.4 -20 -28.9 66 66 NW 7 11 30.42 1030 10 16 0.00 0.00
9:53 am 09:53 Sunny -7 -21.7 -15 -26.1 68 68 W 5 7 30.44 1031 10 16 0.00 0.00
10:53 am 10:53 Sunny 2 -16.7 -11 -23.9 54 54 WNW 9 15 30.42 1030 10 16 0.00 0.00
11:53 am 11:53 Sunny 5 -15 -8 -22.2 54 54 NW 10 17 30.39 1029 10 16 0.00 0.00
12:53 pm 12:53 Sunny 7 -13.9 -7 -21.7 52 52 NW 10 17 30.37 1028 10 16 0.00 0.00
1:53 pm 13:53 Sunny 9 -12.8 -4 -20 55 55 NW 9 15 30.37 1029 10 16 0.00 0.00
2:53 pm 14:53 Sunny 10 -12.2 -3 -19.4 55 55 NW 10 17 30.39 1029 10 16 0.00 0.00
3:53 pm 15:53 Sunny 9 -12.8 -3 -19.4 58 58 NW 8 13 30.40 1029 10 16 0.00 0.00
4:53 pm 16:53 Clear 6 -14.4 -3 -19.4 66 66 WNW 8 13 30.44 1031 10 16 0.00 0.00
5:53 pm 17:53 Clear 0 -17.8 -8 -22.2 69 69 N 5 7 30.50 1033 10 16 0.00 0.00
6:53 pm 18:53 Clear 2 -16.7 -7 -21.7 65 65 NNW 6 9 30.51 1033 10 16 0.00 0.00
7:53 pm 19:53 Clear -1 -18.3 -9 -22.8 68 68 NNW 9 15 30.54 1034 10 16 0.00 0.00
8:53 pm 20:53 Clear 0 -17.8 -8 -22.2 69 69 NW 6 9 30.53 1034 10 16 0.00 0.00
9:53 pm 21:53 Clear -5 -20.6 -12 -24.4 72 72 Calm 30.54 1034 10 16 0.00 0.00
10:53 pm 22:53 Clear -9 -22.8 -16 -26.7 71 71 Calm 30.54 1034 10 16 0.00 0.00
11:53 pm 23:53 Clear -6 -21.1 -14 -25.6 67 67 N 8 13 30.53 1034 10 16 0.00 0.00

Powered by AerisWeather